Location: Newark
(48.8604°N, 2.3376°E)
Time: 16:13:39
(UTC+00:00)

XW-2C - Pass Details

Date: 07 December 2021
Orbit: 503 x 523 km, 97.5° (Epoch: 17 January)

Event Time Altitude Azimuth Distance (km) Brightness Sun altitude
Rises 04:32:39 0° 35° (NE) 2,670 ? -28.1°
Reaches altitude 10° 04:37:11 10° 85° (E) 1,771 ? -27.3°
Maximum altitude 04:37:19 10° 87° (E) 1,769 ? -27.3°
Drops below altitude 10° 04:37:26 10° 89° (E) 1,770 ? -27.3°
Sets 04:41:56 0° 139° (SE) 2,646 ? -26.6°
